Showing default

ORBCOMM FM 115, 41186

Orbit data source: Space-Track

ORBCOMM FM 115, 41186 is a payload satellite owned by Orbcomm (US) in LEO that was launched on Tue, 22 Dec 2015 UTC via an FALCON 9 launch vehicle from the Air Force Eastern Test Range (AFETR). Payload-class satellites include a variety of spacecraft equipped with specific instruments for various scientific and technological missions. These include communications satellites like Starlink; space stations such as the ISS; scientific satellites like the Hubble; Earth observation satellites from companies like Planet Labs, Umbra, and HawkEye 360; GPS; miniature CubeSats for education and research; and military/defense satellites.

Loading next visibility...
Identifier
41186, 2015-081H
Orbit
LEO
Country
Flag of USUS / ORB
Related business
Manufacturer
SNC Louisville
Mission
Non-operational Commercial Communications
Bus & Motor
SN-100A, Unknown motor
Mass
172 kg wet, 158 kg dry
Launch date (UTC)
2015-12-22 (10 years ago)
Launch vehicle
FALCON 9
Launch site
Air Force Eastern Test Range (AFETR)
Object type
Payload
Rocket body
Debris
Shape & HBR
Box + 1 Pan + 1 Ant, 10.3 m
Radar Cross Section
2.222 m², Medium (>0.1 m² and < 1m²)

Expand to show TLE details & history
Last TLE update: 10 hours ago

TLE from 10 hours ago
0 ORBCOMM FM 115
1 41186U 15081H   26036.92492345  .00001228  00000-0  27101-3 0  9997
2 41186  46.9999   7.4574 0000722 352.1224   7.9652 14.63055348541991
Epoch: 2026-02-05T22:11Z
TLE epoch observation values (Epoch: 2026-02-05T22:11:53.386Z)
Latitude
-0°
Longitude
-101.58521°
Altitude
683.037 km
Speed
7.517 km/s
True Right ascension
00h 29m 49s
True Declination
0° 00' 00"
Sunlit
Object was in daylight at epoch
Visualization orbit readout
Latitude
Unknown
Longitude
Unknown
Altitude
Unknown
Speed
Unknown
Apparent Right ascension
Unknown
Apparent Declination
Unknown
Sunlit
N/A
Visualization observer readout
Local Sidereal Time
10:43:31
Azimuth
Unknown
Elevation
Unknown
Doppler factor
Unknown
Orbital elements
Apogee altitude
685.073 km
Perigee altitude
684.053 km
Semi-major axis
7,062.7 km
Eccentricity
0.00007
Inclination
46.9999°
RAAN
7.4574°
Arg. of periapsis
352.1224°
True anomaly
7.96635°
Mean anomaly
7.9652°
Eccentric anomaly
7.96577°
Mean motion
3.65668 °/min
Orbital period
98.45 mins
BSTAR
0.00027101
Loading maneuver chart data...
Computing Atmospheric mass density...
Loading historical data...
Loading historical data...
Loading historical data...
Loading historical data...
Loading historical data...
Loading historical data...
Loading historical data...

Documentation

Showing up to 5 results
|